Погода в Дуонге-Донге

Вьетнам     10°13′24″N   103°57′55″E
темп.,
°C
ветер,
м/с
пор.,
м/с
влажн.,
%
обл.,
%
осадки,
мм/ч
давл.,
гПа
погр.,
м
10 августа, ср
ср1001:00+27зсз598385 1.4 1006731
04:00+26з6108560 2.2 1006706
07:00+26з7118218 3.9 1007760
10:00+28з71181100 2.9 10081030
13:00+28з7117945 5.8 10071105
16:00+28з6976100 2.9 1005943
19:00+26з5982100 5.4 1007580
22:00+26з3681100 1.1 1009331
11 августа, чт
чт1101:00+26з4882100 1.7 1007391
04:00+26з61180100 1.3 1007614
07:00+26з598490 3.1 1008595
10:00+28з6875100 0.9 1009982
13:00+28з6973100 1.4 1007953
16:00+28з6975100 0.8 1006839
19:00+26зсз5880100 1.8 1008558
22:00+26зсз4884100 0.8 1010427
12 августа, пт
пт1201:00+26з4885100 1.6 1009491
04:00+26з488498 0.8 1008443
07:00+26з4784100 2.0 1009474
10:00+29з4672100 0.4 1010968
13:00+29з5668100 1.0 10081093
16:00+29з566972 0.1 10071068
19:00+26з368046 0.1 1008423
22:00+26з3582100 0.0 1010331
13 августа, сб
сб1301:00+26з238498 0.0 1009246
04:00+25зсз23866 0.2 1008219
07:00+26сз238258 0.2 1009278
10:00+29з346857 0.0 1010844
13:00+30зюз446396 0.0 1008947
16:00+29з4568100 0.0 1007756
19:00+27з3579100 0.0 1008361
22:00+26з3581100 0.0 1010328
14 августа, вс
вс1401:00+26зсз348450 0.0 1008268
04:00+25зсз238695 0.0 1008195
07:00+26зсз2482100 0.0 1009306
10:00+29зсз4668100 0.0 1010890
13:00+30з5665100 0.0 1009908
16:00+29з5770100 0.0 1007779
19:00+27з468057 0.0 1008464
22:00+27з3681100 0.0 1010393